DELTA 1 DEB, 2976

Orbit data source: Space-Track

DELTA 1 DEB, 2976 is space debris in SSO originally from a launch on Thu, 20 Apr 1967 UTC launched from the Air Force Western Test Range (AFWTR). Debris objects in space refer to the collection of defunct objects orbiting the Earth. Examples of debris include non-operational satellites, rocket bodies, and fragments generated from explosions, collisions, or faulty payload assembly.

Loading next visibility...
Identifier
2976, 1967-036C
Orbit
SSO
Country
Flag of USUS
Related business
Manufacturer
Unknown
Mission
Spacecraft
Bus & Motor
Unknown
Mass
Unknown
Launch date (UTC)
1967-04-20 (59 years ago)
Launch vehicle
Unknown
Launch site
Air Force Western Test Range (AFWTR)
Object type
Payload
Rocket body
Debris
Shape & HBR
Unknown shape, 0.1 m
Radar Cross Section
Small (<0.1 m²)

Expand to show TLE details & history
Last TLE update: 11 hours ago

TLE from 11 hours ago
0 DELTA 1 DEB
1 02976U 67036C   26120.38774483 -.00000027  00000-0  10347-3 0  9999
2 02976 102.1715 273.5142 0098473 214.1023 203.6399 12.82104385761584
Epoch: 2026-04-30T09:18Z
TLE epoch observation values (Epoch: 2026-04-30T09:18:21.153Z)
Latitude
55.43581°
Longitude
-102.56053°
Altitude
1,411.704 km
Speed
7.127 km/s
True Right ascension
17h 01m 27s
True Declination
55° 17' 19"
Sunlit
Object was in daylight at epoch
Visualization orbit readout
Latitude
Unknown
Longitude
Unknown
Altitude
Unknown
Speed
Unknown
Apparent Right ascension
Unknown
Apparent Declination
Unknown
Sunlit
N/A
Visualization observer readout
Local Sidereal Time
03:42:58
Azimuth
Unknown
Elevation
Unknown
Doppler factor
Unknown
Orbital elements
Apogee altitude
1,406.461 km
Perigee altitude
1,254.641 km
Semi-major axis
7,708.688 km
Eccentricity
0.00985
Inclination
102.1715°
RAAN
273.5142°
Arg. of periapsis
214.1023°
True anomaly
203.19247°
Mean anomaly
203.6399°
Eccentric anomaly
203.41568°
Mean motion
3.2068 °/min
Orbital period
112.26 mins
BSTAR
0.00010347
Loading maneuver chart data...
Computing Atmospheric mass density...
Loading historical data...
Loading historical data...
Loading historical data...
Loading historical data...
Loading historical data...
Loading historical data...
Loading historical data...
Other satellites on launch #36 in the year 1967 (1967-04-20 UTC)

Documentation

Showing up to 5 results
|